Flag for U.S.A. Weather past 2 weeks in Clarksville, Tennessee, U.S.A.

Now
58 °F

Passing clouds.


Feels Like: 58 °F
Forecast: 54 / 78 °F
Wind: No wind

Location: Outlaw Field

Current Time: May 23, 2015 at 7:51:14 AM

Latest Report: May 23, 2015 at 6:52 AM


Visibility: 10 mi

Pressure: 30.33 "Hg

Humidity: 84%

Dew point: 53 °F

Location of ClarksvilleLocation

Historic Weather in Clarksville — Graph

°F

Clarksville temperature yesterday

Maximum temperature yesterday: 74 °F (at 3:52 PM)
Minimum temperature yesterday: 41 °F (at 5:52 AM)
Average temperature yesterday: 60 °F

Past Weeks' High & Low Weather Summary

 TemperatureHumidityPressure
High88 °F (May 10, 3:52 PM)100% (May 19, 2:52 AM)30.37 "Hg (May 19, 2:52 AM)
Low41 °F (May 22, 5:52 AM)29% (May 13, 3:52 PM)29.91 "Hg (May 20, 5:52 PM)
Average68 °F73%30.12 "Hg
* Reported May 8 6:52 AM — May 23 6:52 AM, Clarksville, Weather by CustomWeather, © 2015

Note: Actual official high and low records may vary slightly from our data, if they occured in-between our weather recording intervals... More about our weather records

Advertising

Clarksville weather history for previous 24 hours

 ConditionsComfort  
Time TempWeatherWind HumidityBarometerVisibility
6:52 AM
Sat, May 23
58 °FPassing clouds.No wind84%30.33 "Hg10 mi
5:52 AM56 °FSunny.No wind84%30.32 "Hg10 mi
4:52 AM55 °FClear.No wind90%30.29 "Hg10 mi
3:52 AM54 °FClear.5 mph93%30.27 "Hg10 mi
2:52 AM56 °FClear.3 mph87%30.26 "Hg10 mi
1:52 AM55 °FClear.No wind90%30.26 "Hg10 mi
12:52 AM55 °FClear.No wind87%30.26 "Hg10 mi
11:52 PM
Fri, May 22
59 °FClear.No wind75%30.27 "Hg10 mi
10:52 PM60 °FClear.No wind69%30.27 "Hg10 mi
9:52 PM63 °FClear.3 mph60%30.27 "Hg10 mi
8:52 PM63 °FClear.3 mph63%30.26 "Hg10 mi
7:52 PM66 °FSunny.5 mph54%30.25 "Hg10 mi
6:52 PM71 °FSunny.3 mph41%30.25 "Hg10 mi
5:52 PM74 °FSunny.No wind37%30.25 "Hg10 mi
4:52 PM72 °FSunny.3 mph38%30.25 "Hg10 mi
3:52 PM74 °FSunny.3 mph36%30.25 "Hg10 mi
2:52 PM72 °FSunny.3 mph37%30.26 "Hg10 mi
1:52 PM71 °FSunny.3 mph36%30.27 "Hg10 mi
12:52 PM69 °FSunny.No wind35%30.28 "Hg10 mi
11:52 AM66 °FSunny.No wind43%30.29 "Hg10 mi
10:52 AM64 °FSunny.No wind50%30.30 "Hg10 mi
9:52 AM62 °FSunny.No wind56%30.31 "Hg10 mi
8:52 AM60 °FSunny.6 mph65%30.31 "Hg10 mi
7:52 AM54 °FSunny.No wind80%30.29 "Hg10 mi
Weather by CustomWeather, © 2015

See weather overviewHow to use our weather pages